Weather History for Bentonville, AR

Change the Weather History Date:

Thursday, November 28, 2013

  Actual Average Record
Temperature  
Mean Temperature 37 °F -  
Max Temperature 51 °F 48 °F 73 °F (1949)
Min Temperature 23 °F 27 °F 12 °F (1952)
Degree Days  
Heating Degree Days 28    
Moisture  
Dew Point 19 °F    
Average Humidity 52    
Maximum Humidity 80    
Minimum Humidity 34    
Precipitation  
Precipitation 0.00 in - - ()
Sea Level Pressure  
Sea Level Pressure 30.32 in    
Wind  
Wind Speed 6 mph (SW)    
Max Wind Speed 15 mph    
Max Gust Speed 21 mph    
Visibility 10 miles    
Events      
Averages and records for this station are not official NWS values.
T = Trace of Precipitation, MM = Missing Value Source: NWS Daily Summary

Daily Weather History Graph

Daily Weather History Graph

Search for Another Location

Airport:

Trip Planner

Search our weather history database for the weather conditions in past years. The results will help you decide how hot, cold, wet, or windy it might be!

Date:

Astronomy

Nov. 28, 2013 Rise Set
Actual Time 7:07 AM CST 5:02 PM CST
Civil Twilight 6:39 AM CST 5:30 PM CST
Nautical Twilight 6:07 AM CST 6:02 PM CST
Astronomical Twilight 5:36 AM CST 6:33 PM CST
Moon 2:18 AM CST (11/28) 2:05 PM CST (11/28)
Length of Visible Light 10h 51m
Length of Day
9h 55m
Waning Crescent, 22% of the Moon is Illuminated
Nov 28
Waning Crescent
Dec 2
New
Dec 9
First Quarter
Dec 17
Full
Dec 25
Last Quarter

Hourly Weather History & Observations

Time (CST) Temp. Windchill Dew Point Humidity Pressure Visibility Wind Dir Wind Speed Gust Speed Precip Events Conditions
12:15 AM 23.0 °F 15.8 °F 12.2 °F 63% 30.29 in 10.0 mi South 5.8 mph - N/A   Clear
12:35 AM 23.0 °F 18.4 °F 12.2 °F 63% 30.28 in 10.0 mi SSW 3.5 mph - N/A   Clear
12:55 AM 23.0 °F - 12.2 °F 63% 30.28 in 10.0 mi Calm Calm - N/A   Clear
1:15 AM 24.8 °F 19.1 °F 10.4 °F 54% 30.28 in 10.0 mi South 4.6 mph - N/A   Clear
1:35 AM 23.0 °F 15.8 °F 12.2 °F 63% 30.27 in 10.0 mi South 5.8 mph - N/A   Clear
1:55 AM 24.8 °F 17.9 °F 12.2 °F 59% 30.27 in 10.0 mi South 5.8 mph - N/A   Clear
2:15 AM 24.8 °F 17.9 °F 12.2 °F 59% 30.27 in 10.0 mi South 5.8 mph - N/A   Clear
2:35 AM 26.6 °F 18.2 °F 12.2 °F 55% 30.26 in 10.0 mi South 8.1 mph - N/A   Clear
2:55 AM 26.6 °F 18.2 °F 12.2 °F 55% 30.26 in 10.0 mi South 8.1 mph - N/A   Clear
3:15 AM 26.6 °F 20.0 °F 12.2 °F 55% 30.26 in 10.0 mi South 5.8 mph - N/A   Clear
3:35 AM 26.6 °F 21.2 °F 12.2 °F 55% 30.26 in 10.0 mi South 4.6 mph - N/A   Clear
3:55 AM 24.8 °F 19.1 °F 12.2 °F 59% 30.25 in 10.0 mi South 4.6 mph - N/A   Clear
4:15 AM 26.6 °F 21.2 °F 12.2 °F 55% 30.25 in 10.0 mi South 4.6 mph - N/A   Clear
4:35 AM 26.6 °F 19.1 °F 12.2 °F 55% 30.26 in 10.0 mi SSW 6.9 mph - N/A   Clear
4:55 AM 26.6 °F 19.1 °F 12.2 °F 55% 30.27 in 10.0 mi SSW 6.9 mph - N/A   Clear
5:15 AM 26.6 °F 18.2 °F 12.2 °F 55% 30.27 in 10.0 mi South 8.1 mph - N/A   Clear
5:35 AM 26.6 °F 19.1 °F 12.2 °F 55% 30.27 in 10.0 mi SSW 6.9 mph - N/A   Clear
5:55 AM 26.6 °F 19.1 °F 12.2 °F 55% 30.28 in 10.0 mi SSW 6.9 mph - N/A   Clear
6:15 AM 26.6 °F 20.0 °F 12.2 °F 55% 30.28 in 10.0 mi SSW 5.8 mph - N/A   Clear
6:35 AM 26.6 °F 20.0 °F 12.2 °F 55% 30.29 in 10.0 mi SSW 5.8 mph - N/A   Clear
6:55 AM 26.6 °F 20.0 °F 12.2 °F 55% 30.29 in 10.0 mi SSW 5.8 mph - N/A   Clear
7:15 AM 28.4 °F 21.2 °F 12.2 °F 51% 30.29 in 10.0 mi South 6.9 mph - N/A   Clear
7:35 AM 28.4 °F 21.2 °F 12.2 °F 51% 30.29 in 10.0 mi South 6.9 mph - N/A   Clear
7:55 AM 28.4 °F 23.3 °F 12.2 °F 51% 30.30 in 10.0 mi SSW 4.6 mph - N/A   Clear
8:15 AM 30.2 °F 24.3 °F 14.0 °F 51% 30.30 in 10.0 mi SSW 5.8 mph - N/A   Clear
8:35 AM 32.0 °F 24.8 °F 15.8 °F 51% 30.31 in 10.0 mi SSW 8.1 mph - N/A   Clear
8:55 AM 33.8 °F 26.4 °F 15.8 °F 48% 30.32 in 10.0 mi SSW 9.2 mph - N/A   Clear
9:15 AM 35.6 °F 28.6 °F 15.8 °F 44% 30.32 in 10.0 mi SW 9.2 mph - N/A   Clear
9:35 AM 37.4 °F 30.3 °F 17.6 °F 45% 30.33 in 10.0 mi SW 10.4 mph 19.6 mph N/A   Clear
9:55 AM 39.2 °F 32.5 °F 17.6 °F 42% 30.33 in 10.0 mi SW 10.4 mph 17.3 mph N/A   Clear
10:15 AM 41.0 °F 33.5 °F 17.6 °F 39% 30.33 in 10.0 mi SW 13.8 mph - N/A   Clear
10:35 AM 42.8 °F 36.2 °F 17.6 °F 36% 30.33 in 10.0 mi WSW 12.7 mph 17.3 mph N/A   Clear
10:55 AM 44.6 °F 38.4 °F 19.4 °F 37% 30.33 in 10.0 mi SW 12.7 mph 20.7 mph N/A   Clear
11:15 AM 44.6 °F 37.8 °F 19.4 °F 37% 30.33 in 10.0 mi SW 15.0 mph 18.4 mph N/A   Clear
11:35 AM 44.6 °F 38.1 °F 19.4 °F 37% 30.32 in 10.0 mi SW 13.8 mph - N/A   Clear
11:55 AM 46.4 °F 41.5 °F 21.2 °F 37% 30.32 in 10.0 mi SW 10.4 mph - N/A   Clear
12:15 PM 48.2 °F - 21.2 °F 34% 30.31 in 10.0 mi SW 9.2 mph - N/A   Clear
12:35 PM 48.2 °F - 23.0 °F 37% 30.31 in 10.0 mi SW 10.4 mph 16.1 mph N/A   Clear
12:55 PM 50.0 °F - 24.8 °F 37% 30.30 in 10.0 mi WSW 9.2 mph - N/A   Clear
1:15 PM 48.2 °F - 24.8 °F 40% 30.30 in 10.0 mi SW 10.4 mph - N/A   Clear
1:35 PM 50.0 °F - 24.8 °F 37% 30.29 in 10.0 mi WSW 10.4 mph 16.1 mph N/A   Clear
1:55 PM 50.0 °F - 24.8 °F 37% 30.29 in 10.0 mi WSW 10.4 mph - N/A   Clear
2:15 PM 51.8 °F - 24.8 °F 35% 30.29 in 10.0 mi WSW 8.1 mph - N/A   Clear
2:35 PM 51.8 °F - 26.6 °F 38% 30.29 in 10.0 mi WSW 9.2 mph - N/A   Clear
2:55 PM 51.8 °F - 24.8 °F 35% 30.30 in 10.0 mi SW 9.2 mph - N/A   Clear
3:15 PM 51.8 °F - 26.6 °F 38% 30.30 in 10.0 mi WSW 8.1 mph - N/A   Clear
3:35 PM 51.8 °F - 24.8 °F 35% 30.31 in 10.0 mi West 8.1 mph - N/A   Clear
3:55 PM 51.8 °F - 26.6 °F 38% 30.31 in 10.0 mi WSW 5.8 mph - N/A   Clear
4:15 PM 50.0 °F - 26.6 °F 40% 30.32 in 10.0 mi WSW 5.8 mph - N/A   Clear
4:35 PM 50.0 °F - 24.8 °F 37% 30.32 in 10.0 mi Calm Calm - N/A   Clear
4:55 PM 48.2 °F - 24.8 °F 40% 30.33 in 10.0 mi SW 4.6 mph - N/A   Clear
5:15 PM 46.4 °F 44.3 °F 24.8 °F 43% 30.33 in 10.0 mi SW 4.6 mph - N/A   Clear
5:35 PM 44.6 °F 43.1 °F 24.8 °F 46% 30.34 in 10.0 mi SW 3.5 mph - N/A   Clear
5:55 PM 42.8 °F - 24.8 °F 49% 30.35 in 10.0 mi Calm Calm - N/A   Clear
6:15 PM 42.8 °F - 24.8 °F 49% 30.35 in 10.0 mi Calm Calm - N/A   Clear
6:35 PM 41.0 °F - 24.8 °F 53% 30.36 in 10.0 mi Calm Calm - N/A   Clear
6:55 PM 39.2 °F 35.0 °F 24.8 °F 56% 30.37 in 10.0 mi North 5.8 mph - N/A   Clear
7:15 PM 37.4 °F - 24.8 °F 60% 30.38 in 10.0 mi Calm Calm - N/A   Clear
7:35 PM 37.4 °F - 24.8 °F 60% 30.38 in 10.0 mi Calm Calm - N/A   Clear
7:55 PM 37.4 °F - 24.8 °F 60% 30.39 in 10.0 mi Calm Calm - N/A   Clear
8:15 PM 35.6 °F - 24.8 °F 65% 30.39 in 10.0 mi Calm Calm - N/A   Clear
8:35 PM 35.6 °F - 23.0 °F 60% 30.40 in 10.0 mi Calm Calm - N/A   Clear
8:55 PM 33.8 °F - 24.8 °F 70% 30.40 in 10.0 mi Calm Calm - N/A   Clear
9:15 PM 33.8 °F - 23.0 °F 65% 30.41 in 10.0 mi Calm Calm - N/A   Clear
9:35 PM 30.2 °F - 21.2 °F 69% 30.41 in 10.0 mi Calm Calm - N/A   Clear
9:55 PM 32.0 °F - 23.0 °F 69% 30.42 in 10.0 mi Calm Calm - N/A   Clear
10:15 PM 30.2 °F 26.7 °F 21.2 °F 69% 30.42 in 10.0 mi SSE 3.5 mph - N/A   Clear
10:35 PM 32.0 °F - 23.0 °F 69% 30.42 in 10.0 mi Calm Calm - N/A   Clear
10:55 PM 30.2 °F - 24.8 °F 80% 30.42 in 10.0 mi Calm Calm - N/A   Clear
11:15 PM 30.2 °F - 23.0 °F 75% 30.43 in 10.0 mi Calm Calm - N/A   Clear
11:35 PM 30.2 °F - 24.8 °F 80% 30.43 in 10.0 mi Calm Calm - N/A   Clear
11:55 PM 30.2 °F - 21.2 °F 69% 30.43 in 10.0 mi Calm Calm - N/A   Clear